BEIJING 1 1 28890U 05043A 26172.52621076 .00000076 00000+0 24134-4 0 9996 2 28890 98.2923 305.7633 0013266 268.5773 91.3909 14.63533652101286 HUANJING 1A (HJ-1A) 1 33320U 08041A 26172.54910723 .00000719 00000+0 92209-4 0 9995 2 33320 97.6688 158.2194 0020258 121.0821 239.2385 14.83994384959052 HUANJING 1B (HJ-1B) 1 33321U 08041B 26172.52016529 .00000692 00000+0 89798-4 0 9994 2 33321 97.6522 161.3498 0036434 166.7610 193.4570 14.83321897959057 YAOGAN-4 1 33446U 08061A 26171.40531236 .00000754 00000+0 98778-4 0 9994 2 33446 97.9306 104.8918 0015630 62.9607 297.3200 14.83205273946144 DEIMOS-1 1 35681U 09041A 26172.52729519 .00000293 00000+0 50338-4 0 9991 2 35681 97.7413 329.5665 0001932 127.1499 232.9888 14.75240261907525 UK-DMC 2 1 35683U 09041C 26172.49659550 .00000599 00000+0 94050-4 0 9994 2 35683 97.8847 307.3578 0001132 87.2255 272.9085 14.76041616907206 DMC3-FM1 1 40715U 15032A 26172.58298138 .00000737 00000+0 90770-4 0 9993 2 40715 97.6453 37.5846 0006752 48.9691 311.2108 14.85743079590562 DMC3-FM2 1 40716U 15032B 26172.53766763 .00000702 00000+0 86748-4 0 9995 2 40716 97.6509 39.1179 0007444 52.9093 307.2802 14.85750020590551 DMC3-FM3 1 40717U 15032C 26172.56102530 -.00000160 00000+0 -12501-4 0 9991 2 40717 97.6560 40.8963 0006592 53.3530 306.8291 14.85735864590560